sat.trackr.live / text

‹ back to catalog

2024-173A

NORAD 61227 · 2024-173A

PAYLOAD ACTIVE UNKNOWN

§ Identity

Operator
Country
PRC
Launch date
2024-09-24
Launch site
YSLA
Launch vehicle
Mass (kg)
RCS (m²)

External: N2YO · Heavens-Above · Gunter

§ Orbital elements

Epoch: 2026-08-23T16:46:37.005888Z

Period
88.87 min
Inclination
97.3240°
Eccentricity
0.0014893
Mean motion
16.20386278 rev/d
Perigee alt
208.7 km
Apogee alt
228.3 km
Semi-major
6,596.6 km
B*
1.1932e-3
RAAN
328.4589°
Arg perigee
269.2605°
Mean anomaly
90.6978°
Rev number
10,776

§ Raw data

2024-173A1 61227U 24173A   26235.69903942  .02359095  23945-5  11932-2 0  99942 61227  97.3240 328.4589 0014893 269.2605  90.6978 16.20386278107762

JSON: /api/v1/satellites/61227 · /tle

For live sub-satellite position, see the globe view (requires WebGL).

§ Visibility from observer

Set your observer location to see the next 7 days of passes ≥ 10°. The values pass through the URL so the page stays shareable.

No JS? Fill the form by hand. The geolocation button needs JavaScript.